EW9423 Weather Reports


time (UTC)temp
C
wind
direction
speed
KPH
gust
KPH
rain 1hr
cm
rain 24hr
cm
rain mn
cm
humidity
%
barometer
mb
20260502163518 21 254 14.5 25.7 0.00 0.00 0.00 56 1012.4
20260502162538 22 251 16.1 27.4 0.00 0.00 0.00 51 1012.5
20260502161536 22 244 11.3 27.4 0.00 0.00 0.00 47 1012.5
20260502160536 23 255 14.5 27.4 0.00 0.00 0.00 44 1012.5
20260502151517 23 251 12.9 25.7 0.00 0.00 0.00 35 1012.7
20260502150517 23 253 12.9 22.5 0.00 0.00 0.00 34 1012.7
20260502130537 25 231 11.3 20.9 0.00 0.00 0.00 35 1013.7
20260502123537 25 245 9.7 24.1 0.00 0.00 0.00 35 1014.1
20260502122515 25 222 12.9 22.5 0.00 0.00 0.00 36 1014.2
20260502121517 24 211 11.3 24.1 0.00 0.00 0.00 38 1014.3
20260502120557 24 243 11.3 25.7 0.00 0.00 0.00 37 1014.4
20260502115517 24 246 11.3 24.1 0.00 0.00 0.00 37 1014.5
20260502114615 24 233 9.7 20.9 0.00 0.00 0.00 37 1014.6
20260502113516 24 206 9.7 20.9 0.00 0.00 0.00 38 1014.8
20260502112517 23 206 9.7 20.9 0.00 0.00 0.00 39 1014.9
20260502111517 23 226 9.7 25.7 0.00 0.00 0.00 38 1015.0
20260502110517 23 249 11.3 20.9 0.00 0.00 0.00 36 1015.1
20260502105517 23 203 11.3 22.5 0.00 0.00 0.00 37 1015.1
20260502104517 23 203 9.7 25.7 0.00 0.00 0.00 37 1015.2
20260502103537 23 195 11.3 22.5 0.00 0.00 0.00 37 1015.3
20260502102537 23 208 8.0 22.5 0.00 0.00 0.00 37 1015.4
20260502101517 22 226 11.3 24.1 0.00 0.00 0.00 36 1015.5
20260502100515 22 246 14.5 29.0 0.00 0.00 0.00 35 1015.7
20260502091037 22 203 8.0 19.3 0.00 0.00 0.00 43 1016.0
20260502071017 18 209 6.4 14.5 0.00 0.00 0.00 54 1016.7
20260502070017 17 217 6.4 12.9 0.00 0.00 0.00 56 1016.8
20260502065017 17 210 6.4 17.7 0.00 0.00 0.00 56 1016.9
20260502064017 17 203 6.4 12.9 0.00 0.00 0.00 58 1016.9
20260502063017 16 199 8.0 14.5 0.00 0.00 0.00 58 1016.9
20260502062017 16 197 8.0 17.7 0.00 0.00 0.00 61 1017.1
20260502061016 16 198 4.8 9.7 0.00 0.00 0.00 63 1017.2
20260502060036 15 111 0.0 3.2 0.00 0.00 0.00 65 1017.2
20260502055036 14 108 0.0 3.2 0.00 0.00 0.00 68 1017.3
20260502054016 13 186 3.2 6.4 0.00 0.00 0.00 71 1017.4
20260502053016 12 119 0.0 4.8 0.00 0.00 0.00 73 1017.4
20260502052016 11 206 1.6 8.0 0.00 0.00 0.00 73 1017.4
20260502051016 11 206 3.2 9.7 0.00 0.00 0.00 74 1017.5
20260502050057 11 203 1.6 8.0 0.00 0.00 0.00 74 1017.5
20260502045016 10 203 1.6 6.4 0.00 0.00 0.00 75 1017.6
20260502044016 10 210 1.6 6.4 0.00 0.00 0.00 76 1017.6
20260502043017 10 197 1.6 4.8 0.00 0.00 0.00 76 1017.7
20260502042017 10 221 1.6 6.4 0.00 0.00 0.00 77 1017.9
20260502041037 9 227 1.6 4.8 0.00 0.00 0.00 77 1017.9
20260502040016 9 222 1.6 6.4 0.00 0.00 0.00 76 1018.1
20260502035016 9 239 1.6 4.8 0.00 0.00 0.00 76 1018.2
20260502034016 9 239 1.6 8.0 0.00 0.00 0.00 76 1018.3
20260502033156 9 194 3.2 6.4 0.00 0.00 0.00 77 1018.5
20260502032016 9 207 0.0 6.4 0.00 0.00 0.00 77 1018.6
20260502031016 9 172 3.2 8.0 0.00 0.00 0.00 77 1018.8
20260502030036 9 197 3.2 6.4 0.00 0.00 0.00 77 1018.9
20260502025016 9 224 1.6 4.8 0.00 0.00 0.00 77 1019.1
20260502024016 9 223 0.0 3.2 0.00 0.00 0.00 77 1019.2
20260502023016 9 214 0.0 4.8 0.00 0.00 0.00 76 1019.4
20260502022016 9 213 1.6 3.2 0.00 0.00 0.00 76 1019.6
20260502021016 10 211 1.6 6.4 0.00 0.00 0.00 76 1019.6
20260502020016 10 175 3.2 9.7 0.00 0.00 0.00 76 1019.8
20260502015036 9 180 3.2 6.4 0.00 0.00 0.00 77 1019.9
20260502014016 8 185 1.6 6.4 0.00 0.00 0.00 78 1020.0
20260502013016 8 198 1.6 4.8 0.00 0.00 0.00 81 1020.2
20260502012036 7 227 0.0 4.8 0.00 0.00 0.00 84 1020.3
20260502011016 7 0 0.0 0.0 0.00 0.00 0.00 84 1020.5
20260502010016 7 0 0.0 0.0 0.00 0.00 0.00 85 1020.8
20260502005016 6 0 0.0 0.0 0.00 0.00 0.00 85 1020.9
20260502004016 6 0 0.0 0.0 0.00 0.00 0.00 84 1021.1
20260502003056 6 0 0.0 0.0 0.00 0.00 0.00 83 1021.3
20260502002016 6 0 0.0 0.0 0.00 0.00 0.00 82 1021.5
20260502001016 7 0 0.0 0.0 0.00 0.00 0.00 82 1021.6
20260502000036 7 0 0.0 0.0 0.00 0.00 0.00 83 1021.8
20260501235016 7 0 0.0 0.0 0.00 0.00 0.00 82 1021.9
20260501234016 7 0 0.0 0.0 0.00 0.00 0.00 81 1022.0
20260501233036 7 0 0.0 0.0 0.00 0.00 0.00 80 1022.1
20260501232016 7 0 0.0 0.0 0.00 0.00 0.00 80 1022.2
20260501231016 8 0 0.0 0.0 0.00 0.00 0.00 80 1022.3
20260501230016 8 0 0.0 0.0 0.00 0.00 0.00 79 1022.5
20260501225016 8 0 0.0 0.0 0.00 0.00 0.00 79 1022.5
20260501224016 8 0 0.0 0.0 0.00 0.00 0.00 78 1022.6
20260501223016 9 0 0.0 0.0 0.00 0.00 0.00 77 1022.7
20260501222016 9 0 0.0 0.0 0.00 0.00 0.00 77 1022.8
20260501221016 10 229 0.0 3.2 0.00 0.00 0.00 76 1022.9
20260501220016 10 0 0.0 0.0 0.00 0.00 0.00 76 1023.0
20260501215016 10 0 0.0 3.2 0.00 0.00 0.00 77 1023.1
20260501214016 9 233 0.0 3.2 0.00 0.00 0.00 76 1023.2
20260501213016 10 0 0.0 0.0 0.00 0.00 0.00 75 1023.2
20260501212036 10 0 0.0 0.0 0.00 0.00 0.00 74 1023.2
20260501211016 10 0 0.0 0.0 0.00 0.00 0.00 74 1023.2
20260501210016 10 0 0.0 0.0 0.00 0.00 0.00 73 1023.2
20260501205015 11 0 0.0 0.0 0.00 0.00 0.00 72 1023.1
20260501204015 11 0 0.0 0.0 0.00 0.00 0.00 71 1023.3
20260501203016 11 0 0.0 0.0 0.00 0.00 0.00 69 1023.4
20260501202036 12 0 0.0 0.0 0.00 0.00 0.00 67 1023.5
20260501201018 13 0 0.0 0.0 0.00 0.00 0.00 64 1023.7
20260501200018 14 0 0.0 1.6 0.00 0.00 0.00 61 1023.8
20260501195018 14 321 0.0 3.2 0.00 0.00 0.00 58 1023.7
20260501194018 15 321 0.0 1.6 0.00 0.00 0.00 57 1023.8
20260501193018 15 321 0.0 3.2 0.00 0.00 0.00 57 1023.8
20260501192016 15 321 0.0 4.8 0.00 0.00 0.00 57 1024.0
20260501191038 16 322 1.6 3.2 0.00 0.00 0.00 55 1023.9
20260501190018 17 321 1.6 4.8 0.00 0.00 0.00 53 1023.9
20260501185038 18 331 1.6 4.8 0.00 0.00 0.00 50 1024.0
20260501184016 18 11 0.0 1.6 0.00 0.00 0.00 49 1024.0
20260501183018 18 11 1.6 3.2 0.00 0.00 0.00 48 1024.0
20260501182018 18 11 0.0 3.2 0.00 0.00 0.00 47 1024.1
20260501181018 18 11 1.6 4.8 0.00 0.00 0.00 47 1024.1
20260501180018 18 12 0.0 4.8 0.00 0.00 0.00 47 1024.2
20260501175018 18 12 1.6 4.8 0.00 0.00 0.00 46 1024.1
20260501174018 18 358 1.6 6.4 0.00 0.00 0.00 46 1024.2
20260501173038 19 19 1.6 6.4 0.00 0.00 0.00 45 1024.3
20260501172018 19 11 1.6 6.4 0.00 0.00 0.00 46 1024.3
20260501171018 19 19 1.6 8.0 0.00 0.00 0.00 46 1024.5
20260501170016 20 6 1.6 8.0 0.00 0.00 0.00 45 1024.6
20260501165018 20 17 3.2 9.7 0.00 0.00 0.00 45 1024.7
20260501164018 21 142 0.0 4.8 0.00 0.00 0.00 44 1024.6